Yoho Park, British Columbia

4:27 AM MDT on October 22, 2017 (GMT -0600)
Yoho Park

Weather History for CWYL - December, 2012

Change the Weather History Date:

Friday, December 7, 2012

  Actual Average Record
Temperature  
Mean Temperature 10 °F -  
Max Temperature 18 °F - - ()
Min Temperature 1 °F - - ()
Degree Days  
Heating Degree Days 55    
Moisture  
Dew Point 8 °F    
Average Humidity 88    
Maximum Humidity 91    
Minimum Humidity 78    
Precipitation  
Precipitation 0.00 in - - ()
Sea Level Pressure  
Sea Level Pressure 29.92 in    
Wind  
Wind Speed 2 mph ()    
Max Wind Speed 5 mph    
Max Gust Speed -    
T = Trace of Precipitation, MM = Missing Value Source: Averaged Metar Reports

Daily Weather History Graph

Daily Weather History Graph

Search for Another Location

Airport or City:

Trip Planner

Search our weather history database for the weather conditions in past years. The results will help you decide how hot, cold, wet, or windy it might be!

Date:

Astronomy

Dec. 07, 2012 Rise Set
Actual Time 8:36 AM MST 4:37 PM MST
Civil Twilight 7:57 AM MST 5:16 PM MST
Nautical Twilight 7:14 AM MST 5:59 PM MST
Astronomical Twilight 6:34 AM MST 6:39 PM MST
Moon 1:21 AM MST (12/7) 1:11 PM MST (12/7)
Length of Visible Light 9h 19m
Length of Day
8h 00m
Last Quarter, 38% of the Moon is Illuminated
Dec 7
Last Quarter
Dec 13
New
Dec 19
First Quarter
Dec 28
Full
Jan 4
Last Quarter

Hourly Weather History & Observations

Time (MST) Temp. Windchill Dew Point Humidity Pressure Visibility Wind Dir Wind Speed Gust Speed Precip Events Conditions
12:00 AM 11.5 °F - 9.3 °F 91% 29.98 in - East 2.3 mph - N/A   Unknown
1:00 AM 10.9 °F - 8.6 °F 90% 29.98 in - East 1.2 mph - N/A   Unknown
2:00 AM 10.0 °F - 7.9 °F 91% 29.98 in - Calm Calm - N/A   Unknown
3:00 AM 10.2 °F 3.8 °F 7.9 °F 90% 29.99 in - ENE 3.5 mph - N/A   Unknown
4:00 AM 9.1 °F - 6.8 °F 90% 29.99 in - East 1.2 mph - N/A   Unknown
5:00 AM 9 °F - 7 °F 85% 29.98 in - East 4.6 mph - -  
5:00 AM 9.0 °F 0.6 °F 6.6 °F 90% 29.98 in - East 4.6 mph - N/A   Unknown
6:00 AM 8.8 °F - 6.4 °F 90% 29.98 in - ENE 2.3 mph - N/A   Unknown
7:00 AM 8.1 °F 1.4 °F 5.4 °F 89% 29.98 in - East 3.5 mph - N/A   Unknown
8:00 AM 8.1 °F - 5.4 °F 89% 29.97 in - East 1.2 mph - N/A   Unknown
9:00 AM 7.5 °F 0.8 °F 4.8 °F 89% 29.96 in - East 3.5 mph - N/A   Unknown
10:00 AM 9.5 °F - 6.6 °F 88% 29.95 in - Calm Calm - N/A   Unknown
11:00 AM 12 °F - 10 °F 85% 29.93 in - East 1.2 mph - -  
11:00 AM 12.4 °F - 9.5 °F 88% 29.93 in - East 1.2 mph - N/A   Unknown
12:00 PM 14.7 °F 9.0 °F 11.8 °F 88% 29.91 in - ENE 3.5 mph - N/A   Unknown
1:00 PM 16.9 °F 9.8 °F 13.6 °F 87% 29.87 in - ENE 4.6 mph - N/A   Unknown
2:00 PM 18.1 °F - 14.7 °F 86% 29.85 in - ESE 1.2 mph - N/A   Unknown
3:00 PM 18.1 °F - 14.7 °F 86% 29.83 in - West 1.2 mph - N/A   Unknown
4:00 PM 17.6 °F - 14.4 °F 87% 29.84 in - West 1.2 mph - N/A   Unknown
5:00 PM 16 °F - 14 °F 86% 29.84 in - Calm Calm - -  
5:00 PM 16.2 °F - 13.6 °F 90% 29.84 in - Calm Calm - N/A   Unknown
6:00 PM 13.6 °F - 11.1 °F 90% 29.85 in - ESE 1.2 mph - N/A   Unknown
7:00 PM 10.2 °F - 7.5 °F 89% 29.87 in - ENE 1.2 mph - N/A   Unknown
8:00 PM 7.2 °F - 4.3 °F 88% 29.89 in - East 2.3 mph - N/A   Unknown
9:00 PM 5.2 °F -1.9 °F 2.1 °F 87% 29.91 in - East 3.5 mph - N/A   Unknown
10:00 PM 2.7 °F -4.8 °F -0.4 °F 87% 29.93 in - ENE 3.5 mph - N/A   Unknown
11:00 PM 2 °F - -1 °F 78% 29.94 in - East 3.5 mph - -  
11:00 PM 1.6 °F -6.0 °F -1.5 °F 87% 29.94 in - East 3.5 mph - N/A   Unknown